Location: La Brionne
(46.1728°N, 1.7849°E)
Time: 14:45:45
(UTC+00:00)

NOAA 15 - Visible Passes

Search period start: 01 April 2023 00:00
Search period end: 11 April 2023 00:00
Orbit: 796 x 812 km, 98.6° (Epoch: 01 April)

Date Brightness Start Highest point End Pass type
(mag) Time Alt. Az. Time Alt. Az. Time Alt. Az.
01 Apr 7.3 20:08:09 10° SW 20:11:36 17° W 20:15:04 10° NW visible
02 Apr 6.7 19:41:23 10° SSW 19:45:55 28° W 19:50:28 10° NW visible
03 Apr 5.8 19:15:15 10° S 19:20:20 46° W 19:25:26 10° NNW visible
04 Apr 4.9 18:49:32 10° S 18:54:50 76° WSW 19:00:09 10° NNW visible
04 Apr 7.7 20:34:38 10° W 20:35:28 10° W 20:36:18 10° WNW visible
05 Apr 7.3 20:06:08 10° SW 20:09:41 18° W 20:13:15 10° NW visible
06 Apr 6.6 19:39:25 10° SSW 19:44:00 29° W 19:48:36 10° NW visible
07 Apr 5.7 19:13:19 10° S 19:18:26 48° W 19:23:32 10° NNW visible
08 Apr 7.7 20:32:16 10° W 20:33:32 11° W 20:34:49 10° WNW visible
09 Apr 7.3 20:04:07 10° SW 20:07:46 19° W 20:11:25 10° NW visible
10 Apr 6.5 19:37:27 10° SSW 19:42:05 30° W 19:46:43 10° NW visible
